FW9818 Weather Reports


Display with metric or nautical units.
time (UTC)temp
F
wind
direction
speed
MPH
gust
MPH
rain 1hr
in
rain 24hr
in
rain mn
in
humidity
%
barometer
mb
20260507060114 49 343 2.0 3.0 0.00 0.00 0.00 80 1014.7
20260507054601 49 329 1.0 3.0 0.00 0.00 0.00 80 1014.5
20260507053106 49 323 1.0 2.0 0.00 0.00 0.00 80 1014.4
20260507051602 49 314 1.0 2.0 0.00 0.00 0.00 80 1014.4
20260507050022 48 295 1.0 2.0 0.00 0.00 0.00 80 1014.2
20260507044626 48 287 0.0 2.0 0.00 0.01 0.00 80 1014.0
20260507043133 48 285 0.0 2.0 0.00 0.01 0.00 79 1013.9
20260507041624 48 285 0.0 2.0 0.00 0.01 0.00 79 1013.8
20260507034557 49 305 0.0 2.0 0.00 0.01 0.00 78 1013.5
20260507033102 49 327 0.0 1.0 0.00 0.01 0.00 77 1013.5
20260507031608 49 327 0.0 2.0 0.00 0.01 0.00 77 1013.4
20260507030111 49 327 0.0 2.0 0.00 0.01 0.00 76 1013.4
20260507024632 49 327 0.0 2.0 0.00 0.02 0.00 77 1013.3
20260507023116 49 327 0.0 2.0 0.00 0.02 0.00 77 1013.3
20260507021613 49 327 0.0 0.0 0.00 0.02 0.00 76 1013.2
20260507020121 49 327 0.0 2.0 0.00 0.02 0.00 75 1013.0
20260507014616 49 327 0.0 2.0 0.00 0.02 0.00 74 1012.9
20260507013127 49 327 0.0 0.0 0.00 0.02 0.00 73 1012.9
20260507011536 49 327 0.0 0.0 0.00 0.02 0.00 73 1012.9
20260507010001 49 327 0.0 0.0 0.00 0.02 0.00 73 1012.9
20260507004543 49 327 0.0 2.0 0.00 0.02 0.00 73 1012.9
20260507003006 49 327 0.0 2.0 0.00 0.02 0.00 73 1012.8
20260507001502 49 332 0.0 2.0 0.00 0.02 0.00 73 1012.7
20260507000137 49 323 0.0 2.0 0.00 0.02 0.00 74 1012.8
20260506234509 49 323 0.0 2.0 0.00 0.02 0.00 74 1012.8
20260506233123 50 329 0.0 2.0 0.00 0.02 0.00 74 1012.6
20260506231514 50 324 0.0 2.0 0.00 0.02 0.00 74 1012.6
20260506230134 50 325 1.0 2.0 0.00 0.02 0.00 74 1012.5
20260506224508 50 343 0.0 2.0 0.00 0.04 0.00 74 1012.3
20260506223055 50 339 0.0 3.0 0.00 0.04 0.00 73 1012.2
20260506221518 50 335 1.0 2.0 0.00 0.04 0.00 73 1012.2
20260506214559 50 347 1.0 2.0 0.00 0.06 0.04 72 1012.1
20260506213142 50 355 1.0 3.0 0.00 0.06 0.04 71 1012.0
20260506211632 51 360 1.0 4.0 0.00 0.06 0.04 70 1011.9
20260506210103 51 339 2.0 4.0 0.00 0.06 0.04 69 1011.8
20260506204519 51 55 2.0 4.0 0.00 0.07 0.04 69 1011.7
20260506203007 51 29 2.0 5.0 0.00 0.07 0.04 68 1011.5
20260506201553 51 39 3.0 7.0 0.00 0.07 0.04 69 1011.4
20260506200132 51 45 1.0 4.0 0.00 0.07 0.04 70 1011.3
20260506194629 51 46 1.0 4.0 0.00 0.07 0.04 70 1011.3
20260506193124 51 46 2.0 9.0 0.00 0.07 0.04 70 1011.2
20260506191621 51 89 3.0 5.0 0.00 0.07 0.04 69 1011.0
20260506190120 51 347 3.0 11.0 0.00 0.07 0.04 68 1010.8
20260506184609 52 335 4.0 9.0 0.00 0.08 0.04 66 1010.6
20260506183110 53 85 4.0 10.0 0.00 0.08 0.04 65 1010.5
20260506181600 53 13 4.0 9.0 0.00 0.08 0.04 63 1010.3
20260506180015 54 28 8.0 13.0 0.00 0.08 0.04 60 1010.1
20260506174546 54 299 4.0 10.0 0.00 0.08 0.04 61 1009.8
20260506173138 54 18 4.0 11.0 0.00 0.08 0.04 58 1009.6
20260506171502 55 42 3.0 11.0 0.00 0.08 0.04 58 1009.4
20260506170128 56 4 8.0 13.0 0.00 0.08 0.04 55 1009.2
20260506164611 57 13 6.0 10.0 0.00 0.08 0.04 57 1009.0
20260506163116 57 331 6.0 12.0 0.00 0.08 0.04 58 1008.9
20260506161605 57 303 6.0 12.0 0.00 0.08 0.04 60 1008.9
20260506154622 57 56 5.0 11.0 0.00 0.09 0.04 60 1008.7
20260506153124 58 35 4.0 10.0 0.00 0.09 0.04 60 1008.8
20260506151612 58 23 4.0 8.0 0.00 0.09 0.04 58 1008.7
20260506150106 57 140 4.0 13.0 0.00 0.09 0.04 58 1008.6
20260506144608 57 33 6.0 14.0 0.00 0.09 0.04 56 1008.6
20260506143110 58 4 4.0 10.0 0.00 0.09 0.04 56 1008.5
20260506141554 58 48 3.0 13.0 0.00 0.09 0.04 58 1008.6
20260506140007 59 27 5.0 11.0 0.00 0.09 0.04 59 1008.6
20260506134628 59 323 5.0 11.0 0.00 0.09 0.04 59 1008.5
20260506133129 58 52 4.0 8.0 0.00 0.09 0.04 62 1008.5
20260506131617 58 323 1.0 8.0 0.00 0.09 0.04 63 1008.5
20260506130118 57 345 3.0 6.0 0.00 0.09 0.04 66 1008.5
20260506124606 56 27 3.0 9.0 0.00 0.09 0.04 67 1008.5
20260506123116 56 341 3.0 11.0 0.00 0.09 0.04 66 1008.5
20260506121610 56 18 4.0 7.0 0.00 0.09 0.04 67 1008.5
20260506120122 56 330 5.0 8.0 0.00 0.09 0.04 68 1008.4
20260506114607 55 344 5.0 10.0 0.00 0.09 0.04 68 1008.4
20260506113100 55 348 6.0 9.0 0.00 0.09 0.04 68 1008.3
20260506111518 56 352 6.0 13.0 0.00 0.09 0.04 67 1008.3
20260506110137 56 337 4.0 13.0 0.00 0.09 0.04 69 1008.3
20260506104623 56 23 5.0 10.0 0.00 0.09 0.04 73 1008.5
20260506103131 54 331 6.0 9.0 0.00 0.09 0.04 77 1008.4
20260506101611 53 39 4.0 7.0 0.00 0.09 0.04 81 1008.4
20260506094624 52 328 3.0 9.0 0.00 0.09 0.04 86 1008.4
20260506093119 51 323 5.0 10.0 0.00 0.09 0.04 88 1008.3
20260506091609 50 335 5.0 9.0 0.00 0.09 0.04 88 1008.3
20260506090033 50 343 3.0 6.0 0.00 0.09 0.04 88 1008.2
20260506084614 50 339 2.0 6.0 0.00 0.09 0.04 88 1008.2
20260506083051 49 319 4.0 7.0 0.00 0.09 0.04 88 1008.1
20260506081510 49 310 1.0 6.0 0.00 0.09 0.04 88 1008.0
20260506080142 48 308 4.0 8.0 0.00 0.09 0.04 88 1008.0
20260506073127 48 13 4.0 10.0 0.00 0.09 0.04 87 1007.9
20260506071616 48 342 4.0 8.0 0.00 0.09 0.04 87 1007.7
20260506070117 48 333 3.0 10.0 0.00 0.09 0.04 87 1007.8
20260506061559 48 337 2.0 8.0 0.00 0.09 0.04 86 1007.6